[[{"header":{"parameterUnit":"m.s-1","parameterCategory":1,"la1":30.2991,"la2":30.254,"lo1":-89.0895,"lo2":-89.0444,"dy":0.0017,"dx":0.0017,"nx":28,"ny":28,"refTime":"2023-09-12T03:00:00:Z","depth":0,"parameterNumber":2,"parameterNumberName":"U-component_of_WINDS"},"data":[0,0,0,0,0,0,0,0,0,0,0,0,0,0,0,0,0,0,0,0,0,0,0,0,0,0,0,0,0,0,0,0,0,0,0,0,0,0,0,0,0,0,0,0,0,0,0,0,0,0,0,0,0,0,0,0,0,0,1.2812,1.2813,0,1.2865,1.2865,1.2866,1.2868,1.2867,1.2867,1.2866,1.2924,1.2926,1.2928,0,0,0,0,0,0,0,0,0,0,0,0,0,1.2717,1.2718,1.2812,1.2813,1.2813,1.2865,1.2865,1.2866,1.2868,1.2867,1.2867,1.2866,1.2923,1.2926,1.2928,0,0,0,0,0,0,0,0,0,0,0,0,0,1.2763,1.2719,1.2812,1.282,1.2822,1.2864,1.2865,1.2866,1.2868,1.2867,1.2866,1.2865,1.2922,1.2926,1.2929,1.2968,0,0,1.2939,1.294,0,0,0,0,0,0,0,0,1.276,1.2766,1.2818,1.282,1.2821,1.2859,1.2853,1.29,1.2869,1.2851,1.2866,1.2865,1.2903,1.2908,1.292,1.297,1.2973,1.2939,1.2941,1.2942,1.2943,0,0,0,0,0,0,0,1.2757,1.2764,1.2833,1.2819,1.2821,1.2823,1.2828,1.2862,1.2882,1.2852,1.2852,1.2858,1.2904,1.2917,1.2922,1.2974,1.2939,1.2942,1.2944,1.2945,1.3059,1.306,0,0,0,0,0,0,1.2751,1.2761,1.2831,1.2835,1.2788,1.2825,1.2831,1.2848,1.2881,1.2886,1.2859,1.2858,1.2912,1.2918,1.2924,1.2972,1.2942,1.2945,1.2947,1.3058,1.306,1.3061,0,0,0,0,0,0,1.2749,1.2758,1.2829,1.2798,1.2807,1.2828,1.2846,1.2849,1.2862,1.2887,1.2891,1.2869,1.2912,1.2919,1.2957,1.2974,1.2947,1.2949,1.3057,1.3059,1.306,1.3069,0,0,0,0,0,0,1.2747,1.2757,1.2771,1.2798,1.2809,1.286,1.2847,1.2851,1.2867,1.2867,1.2897,1.2901,1.2911,1.2952,1.296,1.2978,1.2952,1.3055,1.3058,1.306,1.3067,1.307,1.3073,0,0,0,0,0,1.2743,1.2772,1.2772,1.278,1.2827,1.2861,1.2867,1.2878,1.2869,1.2884,1.29,1.29,1.297,1.2956,1.2965,1.2984,1.3054,1.3057,1.3059,1.3066,1.307,1.3073,0,0,0,0,0,0,1.2748,1.2776,1.2776,1.2814,1.2835,1.2861,1.2881,1.2882,1.2907,1.2906,1.2919,1.2925,1.2963,1.2977,1.296,1.3024,1.3012,1.3016,1.3013,1.3017,1.302,1.3017,1.2955,0,0,0,0,0,1.2753,1.2778,1.2801,1.2833,1.2843,1.286,1.2875,1.2881,1.2904,1.2914,1.2932,1.2955,1.2983,1.3001,1.3027,1.3069,1.3076,1.3086,1.309,1.3092,1.3096,1.312,1.3125,1.3069,1.3069,1.3069,0,0,1.2765,1.2783,1.2798,1.2834,1.2851,1.2877,1.2868,1.2896,1.2916,1.2918,1.2955,1.2969,1.2996,1.3035,1.3054,1.3049,1.3113,1.3095,1.3097,1.31,1.3123,1.3128,1.3133,1.3071,1.307,1.307,0,0,1.2799,1.2815,1.2843,1.286,1.2886,1.2897,1.2903,1.293,1.2939,1.2975,1.2978,1.3002,1.3049,1.3068,1.3084,1.3125,1.3127,1.3134,1.3151,1.3174,1.3178,1.3182,1.3198,1.3203,1.3138,1.3138,1.3138,0,1.2811,1.2849,1.2858,1.2886,1.2902,1.2905,1.2934,1.295,1.2984,1.2996,1.2989,1.3047,1.3065,1.311,1.312,1.3132,1.3141,1.3131,1.3177,1.3181,1.3185,1.32,1.3206,1.3138,1.3138,1.3138,1.3138,0,1.2863,1.289,1.291,1.294,1.2959,1.2987,1.3002,1.3019,1.3024,1.3036,1.3073,1.3095,1.3126,1.3137,1.3142,1.3182,1.3178,1.3174,1.3162,1.3191,1.3205,1.3211,1.3139,1.3139,1.3139,1.3139,0,0,1.2903,1.2938,1.2945,1.2959,1.2987,1.3008,1.3037,1.3067,1.3082,1.3105,1.313,1.317,1.3166,1.3184,1.3191,1.3211,1.3243,1.3204,1.3205,1.3211,1.329,1.3293,1.33,1.3244,1.3245,1.3246,1.3288,0,1.2942,1.2992,1.3,1.3045,1.3071,1.3073,1.3098,1.3119,1.3131,1.3155,1.3168,1.3196,1.3188,1.3199,1.3219,1.3235,1.3259,1.3232,1.3269,1.327,1.3263,1.3307,1.3311,1.335,1.3293,1.3294,1.3295,0,1.2993,1.3016,1.3063,1.3088,1.3099,1.3121,1.3149,1.3171,1.3195,1.3202,1.3222,1.3227,1.3258,1.3244,1.3288,1.3269,1.3284,1.3294,1.3296,1.3301,1.3285,1.3314,1.3363,1.3369,1.3304,1.3303,1.3302,0,1.3019,1.3062,1.3095,1.3107,1.3136,1.3152,1.3166,1.3188,1.3205,1.3229,1.3241,1.3269,1.3285,1.3307,1.3319,1.3308,1.3363,1.3349,1.3371,1.337,1.3383,1.3382,1.3436,1.3391,1.3391,1.3391,1.3391,0,1.3062,1.309,1.3107,1.3128,1.3161,1.317,1.3203,1.3216,1.3236,1.326,1.3264,1.3287,1.3301,1.3326,1.3336,1.3372,1.3379,1.3386,1.3389,1.3387,1.3386,1.3398,1.3396,1.3393,1.3392,1.3392,1.3392,0,1.3096,1.3108,1.3145,1.317,1.3176,1.3199,1.3221,1.3242,1.3253,1.3284,1.3292,1.331,1.334,1.3354,1.3392,1.3398,1.3439,1.3439,1.343,1.3432,1.3452,1.3451,1.3516,1.3526,1.3474,1.3475,1.3475,0,1.3123,1.3145,1.3172,1.3187,1.3201,1.3226,1.3243,1.3254,1.3272,1.33,1.3318,1.3348,1.3372,1.342,1.3437,1.3466,1.3468,1.3489,1.3472,1.3469,1.3469,1.3468,1.3471,1.3492,1.3493,1.3493,1.3493,0,1.317,1.3175,1.3199,1.3225,1.3245,1.3266,1.3287,1.33,1.3314,1.3334,1.3364,1.3383,1.3421,1.345,1.348,1.3495,1.3497,1.3498,1.3505,1.3503,1.3498,1.3502,1.344,1.3497,1.3497,1.3496,1.3496,1.3496,1.3202,1.3222,1.3244,1.327,1.3287,1.3306,1.3327,1.3341,1.3366,1.3396,1.3401,1.3433,1.3457,1.3496,1.3512,1.3538,1.3533,1.3543,1.3546,1.3548,1.3549,1.3492,1.3544,1.3543,1.3543,1.3543,1.3543,0,1.325,1.3264,1.3288,1.3317,1.3338,1.3336,1.336,1.3378,1.3406,1.3426,1.345,1.3485,1.3513,1.3533,1.3562,1.3579,1.3581,1.3587,1.3586,1.359,1.3551,1.3543,1.3585,1.3585,1.3585,1.3585,1.3585,1.3585,1.3277,1.3311,1.3318,1.3361,1.3375,1.3405,1.3419,1.3437,1.3454,1.3492,1.3515,1.3527,1.3548,1.3579,1.3605,1.361,1.3621,1.3627,1.3633,1.3597,1.3592,1.3588,1.3581,1.363,1.363,1.3669,1.3669,1.3669]},{"header":{"parameterUnit":"m.s-1","parameterCategory":1,"la1":30.2991,"la2":30.254,"lo1":-89.0895,"lo2":-89.0444,"dy":0.0017,"dx":0.0017,"nx":28,"ny":28,"refTime":"2023-09-12T03:00:00:Z","depth":0,"parameterNumber":3,"parameterNumberName":"V-component_of_WINDS"},"data":[0,0,0,0,0,0,0,0,0,0,0,0,0,0,0,0,0,0,0,0,0,0,0,0,0,0,0,0,0,0,0,0,0,0,0,0,0,0,0,0,0,0,0,0,0,0,0,0,0,0,0,0,0,0,0,0,0,0,2.0959,2.0959,0,2.0973,2.0973,2.0973,2.098,2.098,2.098,2.098,2.0991,2.0991,2.0992,0,0,0,0,0,0,0,0,0,0,0,0,0,2.0933,2.0934,2.0959,2.0959,2.096,2.0973,2.0973,2.0973,2.098,2.098,2.098,2.098,2.0991,2.0991,2.0992,0,0,0,0,0,0,0,0,0,0,0,0,0,2.0946,2.0934,2.0959,2.0965,2.0965,2.0973,2.0973,2.0974,2.098,2.098,2.098,2.098,2.0991,2.0991,2.0992,2.0994,0,0,2.0993,2.0993,0,0,0,0,0,0,0,0,2.0945,2.0947,2.0964,2.0964,2.0965,2.0975,2.0968,2.098,2.098,2.0974,2.098,2.098,2.0985,2.0986,2.0989,2.0995,2.0995,2.0993,2.0993,2.0994,2.0994,0,0,0,0,0,0,0,2.0944,2.0946,2.0965,2.0964,2.0965,2.0965,2.0966,2.0971,2.098,2.0975,2.0975,2.0977,2.0986,2.0988,2.0989,2.0996,2.0993,2.0994,2.0994,2.0994,2.1001,2.1001,0,0,0,0,0,0,2.0943,2.0945,2.0964,2.0965,2.0955,2.0965,2.0967,2.0972,2.098,2.0981,2.0977,2.0977,2.0988,2.0989,2.099,2.0991,2.0994,2.0994,2.0994,2.1001,2.1001,2.1001,0,0,0,0,0,0,2.0942,2.0945,2.0964,2.0955,2.0958,2.0966,2.0971,2.0972,2.0975,2.0981,2.0983,2.0978,2.0988,2.0989,2.0993,2.0992,2.0994,2.0995,2.1001,2.1001,2.1001,2.0996,0,0,0,0,0,0,2.0942,2.0944,2.0947,2.0955,2.0958,2.0968,2.0971,2.0972,2.0976,2.0976,2.0983,2.0984,2.0988,2.0992,2.0993,2.0992,2.0995,2.1001,2.1001,2.1001,2.0996,2.0995,2.0995,0,0,0,0,0,2.0941,2.0945,2.0947,2.0949,2.0962,2.0968,2.097,2.0975,2.0976,2.0977,2.0981,2.0984,2.0992,2.0992,2.0994,2.0993,2.1001,2.1001,2.1001,2.0996,2.0995,2.0995,0,0,0,0,0,0,2.0936,2.0946,2.0949,2.0956,2.0961,2.0969,2.0972,2.0974,2.0979,2.0979,2.0984,2.0985,2.0988,2.0991,2.0991,2.0994,2.0996,2.0996,2.0992,2.0992,2.0991,2.099,2.0995,0,0,0,0,0,2.0936,2.0942,2.095,2.0956,2.0958,2.0964,2.0967,2.0971,2.0976,2.0978,2.0982,2.0985,2.0988,2.099,2.0994,2.0996,2.0996,2.0996,2.0995,2.0995,2.0995,2.0993,2.0993,2.1,2.1,2.1,0,0,2.0936,2.0942,2.0946,2.0955,2.0959,2.0963,2.0966,2.0971,2.0973,2.0978,2.0981,2.0984,2.0988,2.0991,2.0992,2.0993,2.0993,2.0995,2.0994,2.0994,2.0993,2.0992,2.0992,2.1,2.1,2.1,0,0,2.0938,2.0944,2.0948,2.0952,2.0958,2.0962,2.0962,2.0969,2.0972,2.0975,2.0978,2.098,2.0986,2.0988,2.0989,2.0988,2.099,2.0989,2.0986,2.0985,2.0984,2.0983,2.0981,2.098,2.0989,2.0989,2.0989,0,2.0936,2.0944,2.095,2.0953,2.0956,2.0961,2.0963,2.0966,2.0973,2.0974,2.0975,2.0981,2.0984,2.0986,2.0985,2.0987,2.0986,2.0988,2.0984,2.0983,2.0983,2.098,2.098,2.0988,2.0988,2.0988,2.0988,0,2.0941,2.0945,2.0948,2.0954,2.0957,2.096,2.0964,2.0966,2.0968,2.0971,2.0973,2.0976,2.0979,2.098,2.0983,2.0981,2.0981,2.0983,2.0985,2.0982,2.0979,2.0979,2.0988,2.0988,2.0988,2.0988,0,0,2.0942,2.0949,2.095,2.0951,2.0957,2.096,2.0962,2.0965,2.0965,2.0969,2.0969,2.0973,2.0974,2.0975,2.0978,2.0977,2.0972,2.0978,2.0978,2.0976,2.0968,2.0965,2.0964,2.0973,2.0973,2.0973,2.0967,0,2.0943,2.0948,2.0952,2.0955,2.0957,2.096,2.0961,2.0964,2.0966,2.0967,2.0968,2.097,2.0972,2.0973,2.0972,2.0973,2.097,2.0974,2.0972,2.0972,2.097,2.0964,2.0962,2.0956,2.0966,2.0966,2.0966,0,2.0946,2.0949,2.0952,2.0955,2.0956,2.0957,2.0959,2.0961,2.0962,2.0963,2.0964,2.0966,2.0965,2.0967,2.0965,2.0967,2.0966,2.0966,2.0966,2.0966,2.0968,2.0962,2.0954,2.0953,2.0965,2.0965,2.0965,0,2.0944,2.0949,2.0951,2.0952,2.0956,2.0956,2.0957,2.0959,2.096,2.096,2.096,2.0961,2.0961,2.096,2.0961,2.0962,2.0958,2.0961,2.0957,2.0957,2.0956,2.0956,2.0947,2.0957,2.0957,2.0957,2.0957,0,2.0945,2.0946,2.0949,2.0951,2.0951,2.0954,2.0954,2.0955,2.0956,2.0955,2.0958,2.0957,2.0959,2.0957,2.0958,2.0955,2.0955,2.0954,2.0954,2.0954,2.0954,2.0953,2.0953,2.0957,2.0957,2.0957,2.0957,0,2.0943,2.0946,2.0947,2.095,2.095,2.095,2.0952,2.0951,2.0952,2.0952,2.0952,2.0953,2.0951,2.0952,2.095,2.095,2.0946,2.0947,2.0946,2.0945,2.0941,2.0941,2.0931,2.0929,2.0941,2.0941,2.0941,0,2.0943,2.0944,2.0946,2.0946,2.0947,2.0948,2.0948,2.0949,2.0949,2.0949,2.0948,2.0947,2.0946,2.0942,2.0942,2.094,2.094,2.0937,2.094,2.0938,2.0938,2.0938,2.0936,2.0936,2.0936,2.0936,2.0936,0,2.0942,2.0942,2.0943,2.0943,2.0944,2.0944,2.0944,2.0944,2.0945,2.0944,2.0942,2.0941,2.0939,2.0936,2.0934,2.0933,2.0934,2.0934,2.0933,2.0932,2.0931,2.093,2.0943,2.0935,2.0935,2.0935,2.0935,2.0935,2.094,2.094,2.0941,2.094,2.094,2.094,2.0939,2.0939,2.0938,2.0937,2.0937,2.0934,2.0932,2.0929,2.0928,2.0925,2.0926,2.0924,2.0924,2.0923,2.0922,2.0932,2.0924,2.0924,2.0924,2.0924,2.0924,0,2.0938,2.0938,2.0937,2.0937,2.0936,2.0937,2.0936,2.0935,2.0933,2.0932,2.093,2.0926,2.0923,2.0922,2.0918,2.0915,2.0915,2.0914,2.0914,2.0913,2.0922,2.0923,2.0914,2.0914,2.0914,2.0914,2.0914,2.0914,2.0936,2.0935,2.0935,2.0933,2.0932,2.093,2.0929,2.0928,2.0926,2.0923,2.092,2.0919,2.0917,2.0912,2.0909,2.0908,2.0906,2.0904,2.0904,2.0912,2.0913,2.0914,2.0915,2.0904,2.0904,2.0895,2.0895,2.0895]}]]